Lid_Strength_Index
2 2 2 2 2 2 3 3 2 2 2 3 3 3 3 3 2 2 3 3 2 2
2 2 3 3 2 2 2 2 2 2 3 3 4 4 5 5 6 5 5 6 5 5
3 3 3 2 2 2 3 3 2 3 5 7 7 8 8 9 9 9 8 6 5 5
3 3 3 3 3 3 3 3 5 7 9 9 9 10 11 10 8 8 8 8 7 6
3 3 4 4 3 4 6 7 9 10 10 10 11 11 10 9 8 9 9 9 7 6
4 5 6 7 7 8 8 9 10 11 11 11 11 10 9 9 9 9 9 8 7 8
7 8 9 9 9 10 11 12 12 11 12 11 10 9 9 9 9 9 8 7 7 7
9 9 9 10 11 11 11 12 13 13 12 11 10 9 9 9 9 8 8 7 7 6
9 10 10 10 11 12 12 13 13 13 13 11 10 9 8 9 9 9 9 8 9 8
10 10 9 10 12 13 14 13 14 13 12 12 11 10 10 9 10 10 10 10 10 9
9 10 11 12 13 13 13 14 13 13 12 12 11 11 11 10 11 11 10 10 10 11
10 10 11 12 11 12 13 13 13 13 13 13 13 11 11 11 12 11 10 10 10 10
9 9 10 11 11 11 11 12 12 13 13 12 14 11 12 12 12 12 11 11 10 9
10 10 11 11 11 11 11 12 13 14 14 14 14 13 12 10 12 12 11 10 10 10